NOAA 17 DEB

Satellite information

Favourite Embed

Satellite Type and Status

DEBRISIN ORBIT

Key statistics

Satellite NOAA 17 DEB at a glance.

Uptime

8414

Days in orbit

Revolutions

≈ 14.6

Per day

Orbit

SSO

Sun Synchronous Orbit

Inclination

98.9

Latest

Satellite identification and parameters

Extended collection of information and parameters for NOAA 17 DEB.

Object identification

Identified? True

Debris? True

Object name: NOAA 17 DEB

International designator: 2002-032DG

Object number (NORAD): 49478

Object ID (CCSDS): 49478

Country: UNITED STATES OF AMERICA (US)

Current information (Y/N): Y

RCS size: SMALL

Orbital parameters

Period: 98.783 minutes

Inclination: 98.8659 deg

SMA: 7078.614 km

Apoapsis: 706.488 km

Periapsis: 694.47 km

RAAN: 191.7778 deg

Eccentricy: 0.0008489

Argument of periapsis: 146.1868 deg

Mean anomaly: 213.9872 deg

Mean motion: 14.57741102 rev/day

Mean motion (dot): 0.0000859 rev/day2

B* drag term: 0.0018887 1/REarth

Two-line elements (TLE)

Creation date: July 6, 2025, 6:05 p.m.

Reference frame: TEME

Reference center: EARTH

Epoch: July 6, 2025, 11:34 a.m. UTC

TLE line 0: 0 NOAA 17 DEB

TLE line 1: 1 49478U 02032DG 25187.48203036 .00008590 00000-0 18887-2 0 9994

TLE line 2: 2 49478 98.8659 191.7778 0008489 146.1868 213.9872 14.57741102213822

Live tracking on map

Real-time ground track for satellite NOAA 17 DEB.

In-orbit conjunctions

A list of the most updated potential collisions computed for object NOAA 17 DEB.

Target Orbit TCA Probability of collision Miss distance Type
COSMOS 2251 DEB LEO 2024-09-27 19:41:49 0.0004153653 737.0 (m) DEBRIS
COSMOS 1140 LEO 2024-06-19 05:10:04 0.0004347242 161.0 (m) PAYLOAD

Associated space launch

NOAA M carried weather imagers and microwave and infrared sounders, as well as a SARSAT search-and-rescue package. It had an on-orbit mass of 1475 kg.

NOAA 17 DEB was lifted into orbit during the mission ‘Titan II SLV | NOAA 17’, on board a Titan II SLV space rocket.

The launch took place on June 24, 2002, 6:23 p.m. from Space Launch Complex 4W.

For more information about the launch, click the button.

Launch to space Titan II SLV | NOAA 17
Titan II SLV | NOAA 17

Agency: N/A

Status: Launch Successful

Launch date: June 24, 2002, 6:23 p.m. UTC

Rocket: Titan II SLV

Launch pad: Space Launch Complex 4W

Location: Vandenberg SFB, CA, USA

...

Latest news about this satellite

There are no fresh news available about this satellite. Check back as we update our databases every day.


Newsletter sign-up

Weekly statistics, charts and insights to help you stay on top of the space industry.